www.pogodaiklimat.ru

Погода и климат >> Архив погоды >> Мальдивы >> Каадедхдху


ПОГОДА на Каадедхдху

  • Прогноз погоды на Каадедхдху
  • Монитор погоды на Каадедхдху

АРХИВ ПОГОДЫ на Каадедхдху

Время (UTC), дата Ветер
(напр.,м/с)
 
Видим.   Явления Облачность Т
(С)
Тd
(С)
f
(%)
Тe
(С)
Тes
(С)
Комфортность P
(гПа)
Po
(гПа)
Тmin
(С)
Tmax
(С)
R
(мм)
R24
(мм)
S
(см)
18 18.05 З 2 12 км 5/4 540 м
[Cu med, cong Ac trans Ci sp]
+28.8 +25.1 80 +42 +42 опасность
перегрева
1011.0 1010.9
21 18.05 З 1 12 км в посл. час ливневой дождь 9/4 500 м
[Cb cap Ac trans]
+27.6 +25.3 87 +40 +40 очень
душно
1009.5 1009.4
00 19.05 З 2 12 км зарница {ливн. осадки} 8/4 500 м
[Cb cap Ac trans Ci sp]
+28.4 +25.3 83 +41 +41 опасность
перегрева
1009.0 1008.9 0.0
03 19.05 ЮЗ 3 15 км 8/4 500 м
[Cb cap Ac trans Ci sp]
+28.8 +25.7 83 +43 +44 опасность
перегрева
1011.1 1011.0 +25.7
06 19.05 ЮЗ 4 15 км 9/3 540 м
[Cb cap Ac trans Ci sp]
+30.0 +25.0 75 +43 +48 опасность
перегрева
1011.4 1011.3
12 19.05 З 4 12 км {ливн. осадки} 9/4 540 м
[Cb cap Ac trans Ci sp]
+27.8 +24.5 82 +39 +40 очень
душно
1008.6 1008.5 +31.5 0.8
15 19.05 ЮЗ 2 12 км зарница 9/4 540 м
[Cb cap Ac und]
+28.5 +24.9 81 +41 +41 опасность
перегрева
1010.5 1010.4
18 19.05 З 3 12 км 9/3 540 м
[Cu med, cong Ac As]
+29.0 +24.7 78 +41 +41 опасность
перегрева
1011.7 1011.6
21 19.05 З 3 12 км зарница 9/4 500 м
[Cb cap Ac trans Cs]
+29.0 +24.7 78 +41 +41 опасность
перегрева
1010.0 1009.9
00 20.05 С 2 9000 м в посл. час ливневой дождь 9/5 500 м
[Cb cap Ac As]
+26.8 +25.7 94 +40 +40 очень
душно
1009.0 1008.9 1
09 20.05 З 3 9000 м 9/4 500 м
[Cb cap Ac trans]
+29.0 +24.4 76 +41 +44 опасность
перегрева
1009.9 1009.8
12 20.05 З 5 9000 м 9/4 500 м
[Cb cap Ac trans]
+29.0 +24.0 74 +40 +40 очень
душно
1009.2 1009.1 +31.0 0.2
15 20.05 З 6 10 км 9/4 500 м
[Cb cap Ac trans Ci sp]
+28.5 +25.2 82 +41 +41 опасность
перегрева
1010.7 1010.6
18 20.05 З 4 10 км 9/3 540 м
[Cu med, cong Ac trans Cs]
+28.6 +24.6 79 +41 +41 опасность
перегрева
1011.5 1011.4
00 21.05 З 5 10 км 9/3 540 м
[Cu med, cong Ac trans Ci sp]
+29.2 +24.9 78 +42 +42 опасность
перегрева
1009.2 1009.1
03 21.05 З 2 10 км в посл. час ливневой дождь 9/4 540 м
[Cb cap Ac trans Cs]
+28.4 +25.0 82 +41 +42 опасность
перегрева
1011.1 1011.0 +27.0
06 21.05 З 5 10 км {ливн. осадки} 6/4 540 м
[Cb cap Ac trans Ci sp]
+31.1 +25.9 74 +46 +51 опасность
перегрева
1011.7 1011.6 2
09 21.05 З 3 12 км 9/5 500 м
[Cb cap Ac trans Ci sp]
+30.8 +26.3 77 +47 +50 опасность
перегрева
1009.8 1009.7
12 21.05 ЮЗ 2 9000 м слаб. ливневой дождь 9/6 500 м
[Cb cap Ac trans]
+27.5 +25.4 88 +40 +41 очень
душно
1009.6 1009.5 +32.2 2
15 21.05 С 4 7000 м слаб. дождь 10/6 500 м
[Cb cap As op]
+26.2 +25.1 94 +38 +38 очень
душно
1011.8 1011.7
18 21.05 СЗ 7 9000 м в посл. час гроза {ливн. осадки} 9/5 500 м
[Cb cap As trans]
+27.7 +24.7 84 +39 +39 очень
душно
1011.6 1011.5 4
21 21.05 З 3 12 км {гроза} 9/6 500 м
[Cb cap Ac trans]
+28.8 +26.0 85 +43 +43 опасность
перегрева
1010.4 1010.3
00 22.05 З 5 12 км {гроза} 9/5 500 м
[Cb cap Ac trans Ci sp]
+28.4 +24.4 79 +40 +40 очень
душно
1010.0 1009.9 4
03 22.05 З 3 9000 м 9/6 500 м
[Cb cap Ac trans Ci sp]
+28.8 +25.7 83 +43 +44 опасность
перегрева
1011.1 1011.0 +25.2
06 22.05 З 5 10 км 9/4 540 м
[Cb cap Ac trans Cs]
+30.5 +26.2 78 +46 +50 опасность
перегрева
1011.7 1011.6
09 22.05 З 3 10 км 9/4 540 м
[Cb cap Ac trans Cs]
+30.8 +25.4 73 +45 +50 опасность
перегрева
1009.6 1009.5
12 22.05 З 6 9000 м {ливн. осадки} 9/5 500 м
[Cb cap Ac trans Cs]
+28.8 +25.7 83 +43 +43 опасность
перегрева
1009.3 1009.2 +31.4 0.0
15 22.05 З 4 10 км 9/4 540 м
[Cu med, cong Ac trans Cs]
+28.5 +25.2 82 +41 +41 опасность
перегрева
1010.8 1010.7
18 22.05 З 5 10 км 9/5 540 м
[Cb cap Ac trans Ci sp]
+29.2 +25.2 79 +42 +42 опасность
перегрева
1011.6 1011.5
21 22.05 З 2 9000 м слаб. ливневой дождь 9/5 500 м
[Cb cap Ac As]
+26.8 +24.9 89 +38 +38 очень
душно
1009.3 1009.2
00 23.05 ЮЗ 4 7000 м слаб. дождь 10/5 480 м
[Cb cap As op]
+26.0 +24.0 89 +36 +36 очень
душно
1010.1 1010.0 22
03 23.05 Ю 3 9000 м слаб. дождь 10/4 480 м
[Cb cap As op]
+26.2 +25.2 94 +38 +38 очень
душно
1012.0 1011.9 +24.9
06 23.05 З 4 9000 м слаб. дождь {гроза} 10/4 500 м
[Cb cap As op]
+26.8 +25.4 92 +39 +40 очень
душно
1011.9 1011.8 12
09 23.05 З 2 12 км {дождь} 9/4 500 м
[Cb cap Ac As]
+28.4 +25.3 83 +41 +45 опасность
перегрева
1010.2 1010.1
12 23.05 З 4 9000 м слаб. ливневой дождь 9/5 500 м
[Cb cap Ac As]
+28.4 +26.2 88 +43 +43 опасность
перегрева
1009.3 1009.2 +29.4 12
15 23.05 З 2 10 км {ливн. осадки} 9/5 500 м
[Cb cap Ac As]
+28.8 +25.4 82 +42 +42 опасность
перегрева
1011.3 1011.2
18 23.05 З 4 8000 м слаб. ливневой дождь 9/4 500 м
[Cb cap Ac As]
+28.6 +26.4 88 +44 +44 опасность
перегрева
1011.5 1011.4 0.0
21 23.05 З 2 9000 м в посл. час ливневой дождь 9/5 500 м
[Cb cap Ac trans]
+28.0 +25.2 85 +41 +41 опасность
перегрева
1010.0 1009.9
00 24.05 ЮЗ 5 8000 м слаб. ливневой дождь 9/5 480 м
[Cb cap As op]
+27.0 +25.6 92 +40 +40 очень
душно
1010.2 1010.1 5
03 24.05 ЮЗ 2 10 км в посл. час ливневой дождь 9/4 500 м
[Cb cap Ac As]
+28.0 +25.9 88 +42 +43 опасность
перегрева
1011.2 1011.1 +25.4
06 24.05 ЮЗ 4 12 км {ливн. осадки} 9/3 540 м
[Cu med, cong Ac trans Ci sp]
+30.8 +26.0 76 +46 +52 опасность
перегрева
1011.7 1011.6 0.6
09 24.05 З 2 12 км 9/3 540 м
[Cu med, cong Ac trans Ci sp]
+30.5 +25.3 74 +44 +50 опасность
перегрева
1010.0 1009.9
12 24.05 З 3 12 км 9/4 500 м
[Cb cap Ac trans Ci sp]
+29.6 +25.7 80 +44 +45 опасность
перегрева
1009.6 1009.5 +31.5 0.6
15 24.05 З 2 10 км {ливн. осадки} 6/3 540 м
[Cb cap Ac trans Ci sp]
+27.6 +25.6 89 +41 +41 опасность
перегрева
1011.5 1011.4
18 24.05 З 2 12 км {ливн. осадки} 6/5 540 м
[Cb cap Ac trans Ci sp]
+28.6 +26.1 86 +43 +43 опасность
перегрева
1012.1 1012.0 2
21 24.05 З 3 9000 м в посл. час ливневой дождь 8/5 500 м
[Cb cap Ac trans]
+27.4 +25.1 87 +39 +39 очень
душно
1009.8 1009.7
00 25.05 З 3 10 км {ливн. осадки} 6/3 540 м
[Cb cap Ac trans Ci sp]
+27.6 +25.0 86 +40 +40 очень
душно
1009.5 1009.4 7
03 25.05 З 2 12 км 8/1 540 м
[Cu med, cong Ac trans Ci sp]
+29.6 +25.9 81 +44 +47 опасность
перегрева
1010.6 1010.5 +25.2
06 25.05 З 3 15 км 5/3 540 м
[Cu med, cong Ac trans Ci sp]
+30.8 +24.5 69 +43 +52 опасность
перегрева
1011.0 1010.9
09 25.05 З 2 15 км 5/4 540 м
[Cu med, cong Ac trans Ci sp]
+31.2 +25.9 73 +46 +55 опасность
перегрева
1009.4 1009.3
12 25.05 З 2 15 км 6/3 540 м
[Cu med, cong Ac trans Ci sp]
+30.0 +25.5 77 +44 +45 опасность
перегрева
1008.6 1008.5 +31.8
15 25.05 нст 1 15 км 6/3 540 м
[Cu med, cong Ci sp]
+28.2 +25.5 85 +41 +41 опасность
перегрева
1010.4 1010.3

 

Местоположение метеостанции Каадедхдху (Мальдивы): широта 0.48 долгота 72.98 высота над уровнем моря 2 м.

В архиве по умолчанию представлена погода на Каадедхдху за последнюю неделю. Архивные данные за месяц целиком и за предыдущие месяцы, начиная с января 2011 года, Вы можете получить, выбрав интересующий диапазон дат из раскрывающегося списка и нажав кнопку "Ввод!".


*Определитесь, кто Вы:
робот инопланетянин человек

Внимание! Время в таблицах - всемирное. Для получения местного времени необходимо прибавить поправку, которая равна 5 ч.

Смотрите также архив погоды в соседних городах и на ближайших метеорологических станциях:

Погода в Гане (Мальдивы) (130 км)
Погода на Кадхдху (Мальдивы) (166 км)
Погода в Мале (Мальдивы) (418 км)
Погода на Ханимааду (Мальдивы) (695 км)
Погода на Миникое (Лакшадвип, Индия) (870 км)
Погода в Каньякумари (Тамилнад, Индия) (983 км)
Погода в Тривандрам аэропорту (Керала, Индия) (992 км)
Погода в Тривандраме (Керала, Индия) (993 км)
Погода в Галле (Шри Ланка) (1013 км)
Погода в Ратмалане (Шри Ланка) (1041 км)

Пояснения к столбцам:

Ветер - указаны скорость ветра в м/с - средняя за 10 мин, порывы в срок и между сроками (в фигурных скобках) и направление, откуда дует ветер: С - северный, СВ - северо-восточный, В - восточный, ЮВ - юго-восточный, Ю - южный, ЮЗ - юго-западный, З - западный, СЗ - северо-западный.
Видимость - горизонтальная дальность видимости в метрах или километрах. При видимости от 1 до 10 км при отсутствии осадков обычно наблюдается дымка, при ухудшении видимости до 1 км и менее - туман. В сухую погоду видимость может ухудшаться дымом, пылью или мглою.
Явления - указаны атмосферные явления, наблюдавшиеся в срок или в последний час перед сроком; фигурными скобками обозначены явления, наблюдавшиеся между сроками (за 1-3 часа до срока); квадратными скобками обозначены град или гололедные отложения с указанием их диаметра в мм.
Облачность - указаны через наклонную черту общая и нижняя облачность в баллах и высота нижней границы облаков в метрах; квадратными скобками обозначены формы облаков: Ci - перистые, Cs - перисто-слоистые, Cc - перисто-кучевые, Ac - высококучевые, As - высокослоистые, Sc - слоисто-кучевые, Ns - слоисто-дождевые, Cu - кучевые, Cb - кучево-дождевые. Подробнее классификацию облаков см. в Атласе облаков (PDF).
T - Температура воздуха - температура, измеренная на высоте 2 м над землей.
Td - Температура точки росы - температура, при понижении до которой содержащийся в воздухе водяной пар достигнет насыщения.
f - Относительная влажность воздуха - влажноcть воздуха, измеренная на высоте 2 м над землей.
Te - Эффективная температура - температура, которую ощущает одетый по сезону человек в тени. Характеристика душности погоды. При расчете учитывается влияние влажности воздуха и скорости ветра на теплоощущения человека.
Tes - Эффективная температура на солнце - температура, которую ощущает человек, с поправкой на солнечный нагрев. Характеристика знойности погоды. Зависит от высоты солнца над горизонтом, облачности и скорости ветра. Ночью, в пасмурную погоду, а также при ветре 12 м/с и более поправка равна нулю.
P - Атмосферное давление - приведенное к уровню моря атмосферное давление.
Po - Атмосферное давление - измеренное на уровне метеостанции атмосферное давление.
Tmin - Минимальная температура - минимум температуры воздуха на высоте 2 м над землей.
Tmax - Максимальная температура - максимум температуры воздуха на высоте 2 м над землей.
R - Количество осадков - Количество выпавших осадков за период времени, мм. При наведении курсора мыши на число - период времени, за который выпало указанное количество осадков.
R24 - Количество осадков - Количество выпавших осадков за 24 часа, мм.
S - Снежный покров - Высота снежного покрова, см. При наведении курсора мыши на число - состояние снежного покрова и степень покрытия местности в баллах.